RYR4SV GCFV-LEMD

Flight info

Callsign RYR4SV
Flight time N/A
Altitude 36000
Route VASTO UN858 AKUDA DCT PESAS N858 PARKA Z165 SOTUK
Aircraft B738/M-SDE2E3FGHIRWXY/LB1

Departure

Time 2026-05-07 21:18
Airport Fuerteventura Airport (GCFV)

Arrival

Time N/A
Airport Adolfo Suárez Madrid–Barajas Airport (LEMD)
Time Latitude Longitude Altitude Speed Heading
2026-05-07 21:04 28.45661 -13.86796 470 ft 0 kts 272°
2026-05-07 21:07 28.45661 -13.86795 470 ft 0 kts 272°
2026-05-07 21:08 28.45661 -13.86788 470 ft 2 kts 272°
2026-05-07 21:08 28.45661 -13.86769 470 ft 3 kts 272°
2026-05-07 21:08 28.45660 -13.86746 470 ft 3 kts 272°
2026-05-07 21:08 28.45659 -13.86728 470 ft 0 kts 272°
2026-05-07 21:11 28.45569 -13.86738 470 ft 13 kts 140°
2026-05-07 21:12 28.45473 -13.86701 470 ft 17 kts 181°
2026-05-07 21:12 28.45352 -13.86701 470 ft 16 kts 159°
2026-05-07 21:12 28.45326 -13.86594 470 ft 14 kts 99°
2026-05-07 21:12 28.45251 -13.86568 470 ft 14 kts 182°
2026-05-07 21:13 28.45138 -13.86572 470 ft 18 kts 181°
2026-05-07 21:13 28.44998 -13.86576 470 ft 22 kts 182°
2026-05-07 21:13 28.44841 -13.86583 470 ft 23 kts 181°
2026-05-07 21:13 28.44685 -13.86587 470 ft 22 kts 182°
2026-05-07 21:14 28.44534 -13.86593 470 ft 21 kts 181°
2026-05-07 21:14 28.44390 -13.86596 470 ft 21 kts 182°
2026-05-07 21:14 28.44247 -13.86601 470 ft 20 kts 181°
2026-05-07 21:14 28.44109 -13.86606 470 ft 20 kts 182°
2026-05-07 21:15 28.43972 -13.86611 470 ft 21 kts 181°
2026-05-07 21:15 28.43807 -13.86612 470 ft 26 kts 181°
2026-05-07 21:15 28.43635 -13.86621 470 ft 22 kts 182°
2026-05-07 21:15 28.43501 -13.86627 470 ft 17 kts 181°
2026-05-07 21:16 28.43389 -13.86628 470 ft 14 kts 167°
2026-05-07 21:16 28.43372 -13.86544 470 ft 14 kts 56°
2026-05-07 21:16 28.43428 -13.86458 470 ft 12 kts 51°
2026-05-07 21:16 28.43479 -13.86437 470 ft 5 kts
2026-05-07 21:17 28.43559 -13.86433 470 ft 26 kts
2026-05-07 21:17 28.43948 -13.86421 470 ft 85 kts
2026-05-07 21:17 28.44728 -13.86395 470 ft 137 kts
2026-05-07 21:17 28.45810 -13.86363 672 ft 164 kts
2026-05-07 21:18 28.46930 -13.86366 1424 ft 158 kts
2026-05-07 21:18 28.48051 -13.86320 1966 ft 167 kts 12°
2026-05-07 21:18 28.49138 -13.85838 2492 ft 175 kts 32°
2026-05-07 21:18 28.50170 -13.84985 2927 ft 193 kts 37°
2026-05-07 21:19 28.51322 -13.84022 3213 ft 219 kts 36°
2026-05-07 21:19 28.52620 -13.82957 3579 ft 239 kts 35°
2026-05-07 21:19 28.54003 -13.81816 4142 ft 253 kts 35°
2026-05-07 21:19 28.55455 -13.80617 4795 ft 262 kts 34°
2026-05-07 21:20 28.56952 -13.79403 5563 ft 266 kts 31°
2026-05-07 21:20 28.58564 -13.78356 6346 ft 268 kts 25°
2026-05-07 21:20 28.60264 -13.77443 7088 ft 272 kts 21°
2026-05-07 21:20 28.62001 -13.76611 7810 ft 276 kts 19°
2026-05-07 21:21 28.63792 -13.75770 8530 ft 281 kts 19°
2026-05-07 21:21 28.65615 -13.74908 9240 ft 286 kts 19°
2026-05-07 21:21 28.67478 -13.74025 9861 ft 294 kts 19°
2026-05-07 21:21 28.69388 -13.73111 10453 ft 303 kts 19°
2026-05-07 21:22 28.71352 -13.72121 10921 ft 316 kts 20°
2026-05-07 21:22 28.73422 -13.71067 11196 ft 336 kts 20°
2026-05-07 21:22 28.75618 -13.69947 11444 ft 355 kts 20°
2026-05-07 21:22 28.77896 -13.68786 11676 ft 373 kts 20°
2026-05-07 21:23 28.80322 -13.67547 11893 ft 390 kts 20°
2026-05-07 21:23 28.82845 -13.66258 12145 ft 405 kts 21°
2026-05-07 21:23 28.85435 -13.64934 12625 ft 411 kts 21°
2026-05-07 21:23 28.88059 -13.63592 13200 ft 415 kts 20°
2026-05-07 21:24 28.90708 -13.62243 13749 ft 419 kts 19°
2026-05-07 21:24 28.93498 -13.61338 14276 ft 416 kts
2026-05-07 21:24 28.96362 -13.61304 14836 ft 411 kts 348°
2026-05-07 21:24 28.99159 -13.61937 15412 ft 409 kts 340°
2026-05-07 21:25 29.01859 -13.62832 15972 ft 411 kts 337°
2026-05-07 21:25 29.04577 -13.63877 16514 ft 413 kts 335°
2026-05-07 21:25 29.07302 -13.64965 17042 ft 417 kts 335°
2026-05-07 21:25 29.10057 -13.66061 17572 ft 420 kts 335°
2026-05-07 21:26 29.12832 -13.67161 18067 ft 424 kts 335°
2026-05-07 21:26 29.15627 -13.68263 18571 ft 427 kts 335°
2026-05-07 21:26 29.18450 -13.69378 19059 ft 430 kts 334°
2026-05-07 21:26 29.21288 -13.70499 19515 ft 434 kts 334°
2026-05-07 21:27 29.24150 -13.71628 19959 ft 437 kts 334°
2026-05-07 21:27 29.27038 -13.72766 20413 ft 440 kts 334°
2026-05-07 21:27 29.29901 -13.73895 20840 ft 443 kts 334°
2026-05-07 21:27 29.32876 -13.74894 21254 ft 452 kts 341°
2026-05-07 21:28 29.36003 -13.75407 21631 ft 463 kts 349°
2026-05-07 21:28 29.39279 -13.75416 22002 ft 473 kts 357°
2026-05-07 21:28 29.42574 -13.75043 22369 ft 479 kts
2026-05-07 21:28 29.45892 -13.74503 22724 ft 483 kts
2026-05-07 21:29 29.49184 -13.73930 23035 ft 487 kts
2026-05-07 21:29 29.52543 -13.73357 23358 ft 489 kts
2026-05-07 21:29 29.55922 -13.72790 23683 ft 492 kts
2026-05-07 21:29 29.59321 -13.72225 23996 ft 495 kts
2026-05-07 21:30 29.62731 -13.71664 24303 ft 497 kts
2026-05-07 21:30 29.66166 -13.71101 24600 ft 499 kts
2026-05-07 21:30 29.69615 -13.70539 24913 ft 501 kts
2026-05-07 21:30 29.73073 -13.69978 25201 ft 503 kts
2026-05-07 21:31 29.76546 -13.69416 25497 ft 506 kts
2026-05-07 21:31 29.79992 -13.68858 25774 ft 508 kts
2026-05-07 21:31 29.83499 -13.68290 26041 ft 510 kts
2026-05-07 21:31 29.87013 -13.67720 26354 ft 511 kts
2026-05-07 21:32 29.90543 -13.67148 26620 ft 513 kts
2026-05-07 21:32 29.94083 -13.66573 26879 ft 515 kts
2026-05-07 21:32 29.97636 -13.65996 27194 ft 515 kts
2026-05-07 21:32 30.01179 -13.65421 27588 ft 514 kts
2026-05-07 21:33 30.04717 -13.64846 27948 ft 513 kts
2026-05-07 21:33 30.08253 -13.64271 28324 ft 513 kts
2026-05-07 21:33 30.11779 -13.63697 28714 ft 512 kts
2026-05-07 21:33 30.15254 -13.63131 29087 ft 511 kts
2026-05-07 21:34 30.18769 -13.62557 29510 ft 509 kts
2026-05-07 21:34 30.22268 -13.61989 29912 ft 508 kts
2026-05-07 21:34 30.25762 -13.61420 30298 ft 507 kts
2026-05-07 21:34 30.29248 -13.60850 30669 ft 506 kts
2026-05-07 21:35 30.32736 -13.60280 31023 ft 505 kts
2026-05-07 21:35 30.36209 -13.59711 31457 ft 503 kts
2026-05-07 21:35 30.39666 -13.59144 31839 ft 501 kts 360°
2026-05-07 21:35 30.43069 -13.58586 32200 ft 500 kts 360°
2026-05-07 21:36 30.46517 -13.57960 32496 ft 505 kts
2026-05-07 21:36 30.49928 -13.56877 32852 ft 512 kts 12°
2026-05-07 21:36 30.53241 -13.55277 33193 ft 519 kts 19°
2026-05-07 21:36 30.56396 -13.53190 33507 ft 525 kts 26°
2026-05-07 21:37 30.59424 -13.50790 33789 ft 528 kts 30°
2026-05-07 21:37 30.62405 -13.48308 34107 ft 527 kts 30°
2026-05-07 21:37 30.65399 -13.45850 34424 ft 526 kts 29°
2026-05-07 21:37 30.68361 -13.43460 34678 ft 526 kts 29°
2026-05-07 21:38 30.71369 -13.41041 34982 ft 525 kts 28°
2026-05-07 21:38 30.74371 -13.38631 35296 ft 524 kts 28°
2026-05-07 21:38 30.77374 -13.36222 35550 ft 524 kts 28°
2026-05-07 21:38 30.80377 -13.33812 35797 ft 524 kts 28°
2026-05-07 21:39 30.83382 -13.31400 35982 ft 526 kts 28°
2026-05-07 21:39 30.86399 -13.28978 35993 ft 528 kts 28°
2026-05-07 21:39 30.92435 -13.24134 35997 ft 525 kts 28°
2026-05-07 21:40 30.98423 -13.19383 35996 ft 525 kts 28°
2026-05-07 21:40 31.04464 -13.14577 35996 ft 526 kts 28°
2026-05-07 21:41 31.10505 -13.09759 35995 ft 526 kts 28°
2026-05-07 21:41 31.16551 -13.04930 35994 ft 527 kts 28°
2026-05-07 21:42 31.22558 -13.00137 35994 ft 527 kts 28°
2026-05-07 21:42 31.28617 -12.95303 35994 ft 528 kts 28°
2026-05-07 21:43 31.34673 -12.90457 35993 ft 527 kts 28°
2026-05-07 21:43 31.40727 -12.85602 35992 ft 528 kts 28°
2026-05-07 21:44 31.46746 -12.80765 35992 ft 529 kts 28°
2026-05-07 21:44 31.52804 -12.75888 35992 ft 528 kts 28°
2026-05-07 21:45 31.58851 -12.71012 35993 ft 528 kts 28°
2026-05-07 21:45 31.64910 -12.66118 35992 ft 529 kts 29°
2026-05-07 21:46 31.70917 -12.61260 35992 ft 527 kts 28°
2026-05-07 21:46 31.76953 -12.56385 35993 ft 527 kts 29°
2026-05-07 21:47 31.82994 -12.51478 35992 ft 528 kts 29°
2026-05-07 21:47 31.89030 -12.46564 35992 ft 528 kts 29°
2026-05-07 21:48 31.95029 -12.41674 35991 ft 528 kts 29°
2026-05-07 21:48 32.01068 -12.36757 35991 ft 528 kts 29°
2026-05-07 21:49 32.07124 -12.31824 35991 ft 530 kts 29°
2026-05-07 21:49 32.13178 -12.26879 35990 ft 529 kts 29°
2026-05-07 21:50 32.19222 -12.21932 35990 ft 529 kts 30°
2026-05-07 21:50 32.25222 -12.17013 35990 ft 529 kts 30°
2026-05-07 21:51 32.31274 -12.12073 35990 ft 529 kts 29°
2026-05-07 21:51 32.37320 -12.07121 35989 ft 529 kts 30°
2026-05-07 21:52 32.42344 -12.02995 35989 ft 529 kts 30°
2026-05-07 21:52 32.49369 -11.97214 35989 ft 529 kts 30°
2026-05-07 21:53 32.55389 -11.92249 35989 ft 527 kts 30°
2026-05-07 21:53 32.61403 -11.87279 35988 ft 527 kts 30°
2026-05-07 21:54 32.67374 -11.82338 35988 ft 527 kts 30°
2026-05-07 21:54 32.73381 -11.77357 35988 ft 527 kts 30°
2026-05-07 21:55 32.79386 -11.72370 35988 ft 526 kts 30°
2026-05-07 21:55 32.84373 -11.68222 35988 ft 526 kts 31°
2026-05-07 21:56 32.90370 -11.63227 35988 ft 526 kts 31°
2026-05-07 21:56 32.97342 -11.57426 35987 ft 526 kts 31°
2026-05-07 21:57 33.03335 -11.52412 35987 ft 526 kts 31°
2026-05-07 21:57 33.08311 -11.48238 35987 ft 526 kts 31°
2026-05-07 21:58 33.14293 -11.43213 35986 ft 526 kts 31°
2026-05-07 21:58 33.20276 -11.38169 35987 ft 526 kts 32°
2026-05-07 21:59 33.26203 -11.33146 35987 ft 526 kts 32°
2026-05-07 21:59 33.32166 -11.28076 35986 ft 526 kts 32°
2026-05-07 22:00 33.38129 -11.22997 35986 ft 526 kts 32°
2026-05-07 22:00 33.44083 -11.17915 35985 ft 525 kts 32°
2026-05-07 22:01 33.50037 -11.12853 35984 ft 525 kts 32°
2026-05-07 22:01 33.55953 -11.07812 35978 ft 525 kts 32°
2026-05-07 22:02 33.61891 -11.02736 35978 ft 524 kts 32°
2026-05-07 22:02 33.67825 -10.97653 35979 ft 524 kts 32°
2026-05-07 22:03 33.73747 -10.92568 35979 ft 523 kts 32°
2026-05-07 22:03 33.79623 -10.87514 35978 ft 522 kts 32°
2026-05-07 22:04 33.85528 -10.82425 35979 ft 522 kts 32°
2026-05-07 22:04 33.91423 -10.77336 35978 ft 521 kts 32°
2026-05-07 22:05 33.97303 -10.72251 35978 ft 520 kts 32°
2026-05-07 22:05 34.03145 -10.67192 35978 ft 520 kts 33°
2026-05-07 22:06 34.09021 -10.62092 35977 ft 520 kts 33°
2026-05-07 22:06 34.14885 -10.56993 35970 ft 519 kts 33°
2026-05-07 22:07 34.20746 -10.51888 35968 ft 519 kts 33°
2026-05-07 22:07 34.26598 -10.46782 35967 ft 518 kts 33°
2026-05-07 22:08 34.32404 -10.41708 35963 ft 519 kts 33°
2026-05-07 22:08 34.38253 -10.36600 35954 ft 518 kts 33°
2026-05-07 22:09 34.44099 -10.31480 35953 ft 519 kts 33°
2026-05-07 22:09 34.49937 -10.26345 35953 ft 519 kts 33°
2026-05-07 22:10 34.55734 -10.21233 35953 ft 519 kts 33°
2026-05-07 22:10 34.61569 -10.16084 35953 ft 519 kts 33°
2026-05-07 22:11 34.67417 -10.10943 35953 ft 519 kts 33°
2026-05-07 22:11 34.73261 -10.05795 35952 ft 519 kts 33°
2026-05-07 22:12 34.79103 -10.00637 35952 ft 519 kts 33°
2026-05-07 22:12 34.84898 -9.95507 35951 ft 517 kts 33°
2026-05-07 22:13 34.90702 -9.90367 35951 ft 516 kts 33°
2026-05-07 22:13 34.96528 -9.85229 35951 ft 517 kts 33°
2026-05-07 22:14 35.02347 -9.80075 35950 ft 517 kts 33°
2026-05-07 22:14 35.08122 -9.74945 35953 ft 517 kts 33°
2026-05-07 22:15 35.13932 -9.69773 35956 ft 517 kts 33°
2026-05-07 22:15 35.19741 -9.64590 35955 ft 517 kts 33°
2026-05-07 22:16 35.25550 -9.59397 35955 ft 517 kts 33°
2026-05-07 22:16 35.31317 -9.54232 35954 ft 517 kts 33°
2026-05-07 22:17 35.37121 -9.49024 35953 ft 517 kts 33°
2026-05-07 22:17 35.42923 -9.43808 35953 ft 517 kts 33°
2026-05-07 22:18 35.51621 -9.35972 35951 ft 517 kts 34°
2026-05-07 22:19 35.57376 -9.30774 35949 ft 517 kts 33°
2026-05-07 22:19 35.63164 -9.25537 35959 ft 517 kts 33°
2026-05-07 22:20 35.68952 -9.20290 35962 ft 517 kts 33°
2026-05-07 22:20 35.74739 -9.15053 35962 ft 516 kts 33°
2026-05-07 22:21 35.80479 -9.09834 35962 ft 516 kts 33°
2026-05-07 22:21 35.86246 -9.04570 35962 ft 516 kts 33°
2026-05-07 22:22 35.92008 -8.99298 35962 ft 515 kts 33°
2026-05-07 22:22 35.97561 -8.93680 35961 ft 518 kts 42°
2026-05-07 22:23 36.02371 -8.87107 35962 ft 520 kts 48°
2026-05-07 22:23 36.07043 -8.80269 35962 ft 521 kts 48°
2026-05-07 22:24 36.11729 -8.73448 35962 ft 520 kts 48°
2026-05-07 22:24 36.16420 -8.66634 35962 ft 520 kts 48°
2026-05-07 22:25 36.21124 -8.59832 35962 ft 520 kts 47°
2026-05-07 22:25 36.25803 -8.53083 35962 ft 520 kts 47°
2026-05-07 22:26 36.30503 -8.46280 35962 ft 520 kts 47°
2026-05-07 22:26 36.35198 -8.39463 35962 ft 520 kts 47°
2026-05-07 22:27 36.39888 -8.32637 35963 ft 519 kts 47°
2026-05-07 22:27 36.44570 -8.25807 35963 ft 519 kts 47°
2026-05-07 22:28 36.49216 -8.19016 35963 ft 519 kts 47°
2026-05-07 22:28 36.53891 -8.12167 35963 ft 519 kts 47°
2026-05-07 22:29 36.58560 -8.05312 35963 ft 519 kts 47°
2026-05-07 22:29 36.63228 -7.98445 35965 ft 520 kts 48°
2026-05-07 22:30 36.67881 -7.91582 35963 ft 518 kts 47°
2026-05-07 22:30 36.72492 -7.84772 35964 ft 518 kts 47°
2026-05-07 22:31 36.77138 -7.77897 35964 ft 518 kts 47°
2026-05-07 22:31 36.81772 -7.71022 35964 ft 518 kts 47°
2026-05-07 22:32 36.86415 -7.64154 35964 ft 518 kts 47°
2026-05-07 22:32 36.91011 -7.57312 35964 ft 517 kts 47°
2026-05-07 22:33 36.95622 -7.50416 35964 ft 517 kts 47°
2026-05-07 22:33 37.00233 -7.43504 35964 ft 517 kts 47°
2026-05-07 22:34 37.04842 -7.36603 35961 ft 517 kts 47°
2026-05-07 22:34 37.09471 -7.29717 35960 ft 516 kts 47°
2026-05-07 22:35 37.14052 -7.22868 35960 ft 516 kts 47°
2026-05-07 22:35 37.18665 -7.15971 35959 ft 516 kts 47°
2026-05-07 22:36 37.23270 -7.09080 35959 ft 516 kts 47°
2026-05-07 22:36 37.27869 -7.02176 35959 ft 515 kts 47°
2026-05-07 22:37 37.32437 -6.95301 35959 ft 516 kts 46°
2026-05-07 22:37 37.37028 -6.88376 35959 ft 516 kts 47°
2026-05-07 22:38 37.41630 -6.81466 35959 ft 516 kts 46°
2026-05-07 22:38 37.46232 -6.74544 35955 ft 515 kts 46°
2026-05-07 22:39 37.50786 -6.67665 35956 ft 514 kts 46°
2026-05-07 22:39 37.55359 -6.60737 35952 ft 514 kts 46°
2026-05-07 22:40 37.59930 -6.53793 35944 ft 514 kts 46°
2026-05-07 22:40 37.64497 -6.46839 35945 ft 515 kts 46°
2026-05-07 22:41 37.69027 -6.39926 35946 ft 514 kts 46°
2026-05-07 22:41 37.73580 -6.32962 35946 ft 514 kts 46°
2026-05-07 22:42 37.78138 -6.26013 35949 ft 514 kts 45°
2026-05-07 22:42 37.82682 -6.19036 35948 ft 514 kts 46°
2026-05-07 22:43 37.87216 -6.12041 35948 ft 513 kts 46°
2026-05-07 22:43 37.91709 -6.05104 35947 ft 513 kts 45°
2026-05-07 22:44 37.96723 -5.98801 35945 ft 504 kts 33°
2026-05-07 22:44 38.02426 -5.93799 35942 ft 496 kts 25°
2026-05-07 22:45 38.08299 -5.89216 35939 ft 496 kts 25°
2026-05-07 22:45 38.14113 -5.84599 35937 ft 496 kts 25°
2026-05-07 22:46 38.19948 -5.79918 35931 ft 495 kts 25°
2026-05-07 22:46 38.25773 -5.75233 35925 ft 495 kts 25°
2026-05-07 22:47 38.31555 -5.70579 35922 ft 494 kts 25°
2026-05-07 22:47 38.37368 -5.65898 35921 ft 495 kts 25°
2026-05-07 22:48 38.43174 -5.61189 35919 ft 494 kts 25°
2026-05-07 22:48 38.48965 -5.56471 35918 ft 493 kts 25°
2026-05-07 22:49 38.54742 -5.51754 35917 ft 492 kts 25°
2026-05-07 22:49 38.60467 -5.47078 35919 ft 491 kts 25°
2026-05-07 22:50 38.66238 -5.42422 35920 ft 490 kts 25°
2026-05-07 22:50 38.71997 -5.37762 35920 ft 489 kts 25°
2026-05-07 22:51 38.77758 -5.33122 35920 ft 489 kts 25°
2026-05-07 22:51 38.83460 -5.28498 35921 ft 488 kts 25°
2026-05-07 22:52 38.89200 -5.23823 35920 ft 489 kts 25°
2026-05-07 22:52 38.94929 -5.19146 35916 ft 487 kts 25°
2026-05-07 22:53 39.00249 -5.13592 35917 ft 501 kts 40°
2026-05-07 22:53 39.04358 -5.06525 35917 ft 488 kts 52°
2026-05-07 22:53 39.06066 -5.02826 35914 ft 473 kts 54°
2026-05-07 22:54 39.07720 -4.99243 35910 ft 459 kts 53°
2026-05-07 22:54 39.09339 -4.95780 35909 ft 445 kts 52°
2026-05-07 22:54 39.10933 -4.92401 35914 ft 440 kts 52°
2026-05-07 22:55 39.14128 -4.85670 35926 ft 442 kts 52°
2026-05-07 22:55 39.17365 -4.78875 35938 ft 446 kts 52°
2026-05-07 22:56 39.20958 -4.72564 35954 ft 434 kts 40°
2026-05-07 22:56 39.25165 -4.67045 35964 ft 430 kts 36°
2026-05-07 22:57 39.29408 -4.61612 35945 ft 430 kts 36°
2026-05-07 22:57 39.31541 -4.58890 35393 ft 434 kts 36°
2026-05-07 22:57 39.33715 -4.56092 34354 ft 449 kts 37°
2026-05-07 22:57 39.35958 -4.53190 33251 ft 464 kts 37°
2026-05-07 22:58 39.38236 -4.50234 32103 ft 477 kts 37°
2026-05-07 22:58 39.40606 -4.47149 30967 ft 488 kts 38°
2026-05-07 22:58 39.43011 -4.44011 29975 ft 493 kts 38°
2026-05-07 22:58 39.45431 -4.40847 29057 ft 496 kts 38°
2026-05-07 22:59 39.47856 -4.37677 28185 ft 495 kts 39°
2026-05-07 22:59 39.50278 -4.34510 27279 ft 495 kts 39°
2026-05-07 22:59 39.52694 -4.31349 26562 ft 490 kts 39°
2026-05-07 22:59 39.55022 -4.28314 26445 ft 472 kts 39°
2026-05-07 23:00 39.57292 -4.25342 26358 ft 455 kts 39°
2026-05-07 23:00 39.59478 -4.22472 26281 ft 440 kts 39°
2026-05-07 23:00 39.61589 -4.19696 26214 ft 425 kts 39°
2026-05-07 23:00 39.63633 -4.17003 26147 ft 412 kts 39°
2026-05-07 23:01 39.65615 -4.14392 26086 ft 400 kts 39°
2026-05-07 23:01 39.67539 -4.11857 26029 ft 389 kts 39°
2026-05-07 23:01 39.69412 -4.09390 25974 ft 378 kts 38°
2026-05-07 23:01 39.71211 -4.07026 25866 ft 370 kts 38°
2026-05-07 23:02 39.73022 -4.04638 25317 ft 375 kts 38°
2026-05-07 23:02 39.74875 -4.02189 24649 ft 383 kts 39°
2026-05-07 23:02 39.76742 -3.99718 24253 ft 382 kts 39°
2026-05-07 23:02 39.78597 -3.97262 23939 ft 379 kts 40°
2026-05-07 23:03 39.80438 -3.94821 23588 ft 377 kts 40°
2026-05-07 23:03 39.82272 -3.92397 23222 ft 375 kts 40°
2026-05-07 23:03 39.84100 -3.89977 22856 ft 374 kts 41°
2026-05-07 23:03 39.85918 -3.87563 22501 ft 372 kts 41°
2026-05-07 23:04 39.87727 -3.85157 22151 ft 371 kts 41°
2026-05-07 23:04 39.89498 -3.82800 21768 ft 367 kts 41°
2026-05-07 23:04 39.91289 -3.80417 20897 ft 373 kts 42°
2026-05-07 23:04 39.93140 -3.77963 19845 ft 384 kts 43°
2026-05-07 23:05 39.95029 -3.75455 18838 ft 390 kts 44°
2026-05-07 23:05 39.96938 -3.72910 17837 ft 395 kts 44°
2026-05-07 23:05 39.98862 -3.70333 16836 ft 398 kts 45°
2026-05-07 23:05 40.00794 -3.67743 15836 ft 399 kts 45°
2026-05-07 23:06 40.02735 -3.65144 14835 ft 400 kts 46°
2026-05-07 23:06 40.04672 -3.62534 13833 ft 400 kts 46°
2026-05-07 23:06 40.06586 -3.59972 12846 ft 399 kts 45°
2026-05-07 23:06 40.08527 -3.57381 11844 ft 398 kts 46°
2026-05-07 23:07 40.10454 -3.54798 10842 ft 396 kts 46°
2026-05-07 23:07 40.12367 -3.52228 9841 ft 393 kts 46°
2026-05-07 23:07 40.14263 -3.49678 8943 ft 388 kts 46°
2026-05-07 23:07 40.16122 -3.47175 8203 ft 379 kts 46°